Time,TemperatureF,DewpointF,PressureIn,WindDirection,WindDirectionDegrees,WindSpeedMPH,WindSpeedGustMPH,Humidity,HourlyPrecipIn,Conditions,Clouds,dailyrainin,SoftwareType,DateUTC
2013-02-01 00:02:00,5.0,1.0,30.51,WNW,292,0.0,0.0,83,0.00,,,0.00,VWS V14.00,2013-02-01 06:02:00,
2013-02-01 00:07:00,5.0,0.7,30.51,NNW,327,0.0,0.0,82,0.00,,,0.00,VWS V14.00,2013-02-01 06:07:00,
2013-02-01 00:12:00,5.0,0.7,30.50,NW,325,0.0,0.0,82,0.00,,,0.00,VWS V14.00,2013-02-01 06:12:00,
2013-02-01 00:17:00,5.1,0.8,30.51,NW,325,0.0,0.0,82,0.00,,,0.00,VWS V14.00,2013-02-01 06:17:00,
2013-02-01 00:22:00,5.0,0.5,30.50,NW,325,0.0,0.0,81,0.00,,,0.00,VWS V14.00,2013-02-01 06:22:00,
2013-02-01 00:27:00,5.0,0.2,30.51,NW,325,0.0,0.0,80,0.00,,,0.00,VWS V14.00,2013-02-01 06:27:00,
2013-02-01 00:32:00,5.0,0.2,30.51,NW,325,0.0,0.0,80,0.00,,,0.00,VWS V14.00,2013-02-01 06:32:00,
2013-02-01 00:37:00,5.1,0.0,30.51,NW,325,0.0,0.0,79,0.00,,,0.00,VWS V14.00,2013-02-01 06:37:00,
2013-02-01 00:42:00,5.4,0.6,30.51,NW,325,0.0,0.0,80,0.00,,,0.00,VWS V14.00,2013-02-01 06:42:00,
2013-02-01 00:47:00,5.4,0.6,30.51,NW,325,0.0,0.0,80,0.00,,,0.00,VWS V14.00,2013-02-01 06:47:00,
2013-02-01 00:52:00,5.4,0.3,30.51,NW,325,0.0,0.0,79,0.00,,,0.00,VWS V14.00,2013-02-01 06:52:00,
2013-02-01 00:57:00,5.3,-0.1,30.51,NW,325,0.0,0.0,78,0.00,,,0.00,VWS V14.00,2013-02-01 06:57:00,
2013-02-01 01:02:00,5.3,-0.3,30.51,NW,325,0.0,0.0,77,0.00,,,0.00,VWS V14.00,2013-02-01 07:02:00,
2013-02-01 01:07:00,5.2,-0.4,30.51,NW,325,0.0,0.0,77,0.00,,,0.00,VWS V14.00,2013-02-01 07:07:00,
2013-02-01 01:12:00,5.2,-0.7,30.50,NW,325,0.0,0.0,76,0.00,,,0.00,VWS V14.00,2013-02-01 07:12:00,
2013-02-01 01:17:00,5.2,-0.7,30.50,NW,325,0.0,0.0,76,0.00,,,0.00,VWS V14.00,2013-02-01 07:17:00,
2013-02-01 01:22:00,5.1,-1.1,30.49,NW,325,0.0,0.0,75,0.00,,,0.00,VWS V14.00,2013-02-01 07:22:00,
2013-02-01 01:27:00,5.1,-1.4,30.49,NW,325,0.0,0.0,74,0.00,,,0.00,VWS V14.00,2013-02-01 07:27:00,
2013-02-01 01:32:00,5.1,-1.6,30.49,NW,325,0.0,0.0,73,0.00,,,0.00,VWS V14.00,2013-02-01 07:32:00,
2013-02-01 01:37:00,5.1,-1.6,30.48,NNW,336,0.0,0.0,73,0.00,,,0.00,VWS V14.00,2013-02-01 07:37:00,
2013-02-01 01:42:00,5.1,-1.9,30.48,ESE,117,0.0,0.0,72,0.00,,,0.00,VWS V14.00,2013-02-01 07:42:00,
2013-02-01 01:47:00,5.0,-2.0,30.47,East,89,0.0,0.0,72,0.00,,,0.00,VWS V14.00,2013-02-01 07:47:00,
2013-02-01 01:52:00,5.0,-2.0,30.47,East,92,0.0,0.0,72,0.00,,,0.00,VWS V14.00,2013-02-01 07:52:00,
2013-02-01 01:57:00,5.0,-2.0,30.48,East,91,0.0,0.0,72,0.00,,,0.00,VWS V14.00,2013-02-01 07:57:00,
2013-02-01 02:02:00,5.0,-2.0,30.48,East,92,0.0,0.0,72,0.00,,,0.00,VWS V14.00,2013-02-01 08:02:00,
2013-02-01 02:07:00,4.9,-2.1,30.49,East,92,0.0,0.0,72,0.00,,,0.00,VWS V14.00,2013-02-01 08:07:00,
2013-02-01 02:12:00,5.0,-2.0,30.48,East,92,0.0,0.0,72,0.00,,,0.00,VWS V14.00,2013-02-01 08:12:00,
2013-02-01 02:17:00,5.0,-1.8,30.48,SE,136,0.0,0.0,73,0.00,,,0.00,VWS V14.00,2013-02-01 08:17:00,
2013-02-01 02:22:00,5.1,-1.6,30.49,SSE,165,0.0,0.0,73,0.00,,,0.00,VWS V14.00,2013-02-01 08:22:00,
2013-02-01 02:27:00,5.2,-1.5,30.49,South,173,0.0,0.0,73,0.00,,,0.00,VWS V14.00,2013-02-01 08:27:00,
2013-02-01 02:32:00,5.3,-1.5,30.49,South,174,0.0,0.0,73,0.00,,,0.00,VWS V14.00,2013-02-01 08:32:00,
2013-02-01 02:37:00,5.4,-1.4,30.49,SSW,205,0.0,0.0,73,0.00,,,0.00,VWS V14.00,2013-02-01 08:37:00,
2013-02-01 02:42:00,5.5,-1.3,30.49,SSE,157,0.0,0.0,73,0.00,,,0.00,VWS V14.00,2013-02-01 08:42:00,
2013-02-01 02:47:00,5.6,-1.2,30.48,South,190,0.0,0.0,73,0.00,,,0.00,VWS V14.00,2013-02-01 08:47:00,
2013-02-01 02:52:00,5.6,-1.2,30.48,South,175,0.0,0.0,73,0.00,,,0.00,VWS V14.00,2013-02-01 08:52:00,
2013-02-01 02:57:00,5.7,-1.1,30.48,SSE,150,0.0,0.0,73,0.00,,,0.00,VWS V14.00,2013-02-01 08:57:00,
2013-02-01 03:02:00,5.7,-1.1,30.48,SE,146,0.0,0.0,73,0.00,,,0.00,VWS V14.00,2013-02-01 09:02:00,
2013-02-01 03:07:00,5.7,-0.8,30.47,SE,145,0.0,0.0,74,0.00,,,0.00,VWS V14.00,2013-02-01 09:07:00,
2013-02-01 03:12:00,5.7,-0.8,30.47,SSE,158,0.0,0.0,74,0.00,,,0.00,VWS V14.00,2013-02-01 09:12:00,
2013-02-01 03:17:00,5.6,-0.9,30.47,SSE,157,0.0,0.0,74,0.00,,,0.00,VWS V14.00,2013-02-01 09:17:00,
2013-02-01 03:22:00,5.5,-1.0,30.46,SSE,156,0.0,0.0,74,0.00,,,0.00,VWS V14.00,2013-02-01 09:22:00,
2013-02-01 03:26:00,5.5,-1.0,30.47,South,171,0.0,0.0,74,0.00,,,0.00,VWS V14.00,2013-02-01 09:26:00,
2013-02-01 03:31:00,5.5,-1.0,30.46,South,170,0.0,0.0,74,0.00,,,0.00,VWS V14.00,2013-02-01 09:31:00,
2013-02-01 03:36:00,5.4,-1.1,30.47,South,169,0.0,0.0,74,0.00,,,0.00,VWS V14.00,2013-02-01 09:36:00,
2013-02-01 03:41:00,5.4,-1.1,30.47,South,176,0.0,0.0,74,0.00,,,0.00,VWS V14.00,2013-02-01 09:41:00,
2013-02-01 03:46:00,5.3,-1.2,30.47,South,176,0.0,0.0,74,0.00,,,0.00,VWS V14.00,2013-02-01 09:46:00,
2013-02-01 03:51:00,5.1,-1.4,30.46,South,175,0.0,0.0,74,0.00,,,0.00,VWS V14.00,2013-02-01 09:51:00,
2013-02-01 03:56:00,5.0,-1.5,30.47,South,175,0.0,0.0,74,0.00,,,0.00,VWS V14.00,2013-02-01 09:56:00,
2013-02-01 04:01:00,4.9,-1.6,30.48,South,169,0.0,0.0,74,0.00,,,0.00,VWS V14.00,2013-02-01 10:01:00,
2013-02-01 04:06:00,4.8,-1.4,30.47,South,169,0.0,0.0,75,0.00,,,0.00,VWS V14.00,2013-02-01 10:06:00,
2013-02-01 04:11:00,4.7,-1.5,30.47,SSE,168,0.0,0.0,75,0.00,,,0.00,VWS V14.00,2013-02-01 10:11:00,
2013-02-01 04:16:00,4.6,-1.6,30.47,SSE,168,0.0,0.0,75,0.00,,,0.00,VWS V14.00,2013-02-01 10:16:00,
2013-02-01 04:21:00,4.4,-1.8,30.47,SSE,168,0.0,0.0,75,0.00,,,0.00,VWS V14.00,2013-02-01 10:21:00,
2013-02-01 04:26:00,4.2,-1.7,30.46,SSE,168,0.0,0.0,76,0.00,,,0.00,VWS V14.00,2013-02-01 10:26:00,
2013-02-01 04:31:00,4.0,-1.9,30.46,SSE,168,0.0,0.0,76,0.00,,,0.00,VWS V14.00,2013-02-01 10:31:00,
2013-02-01 04:36:00,3.8,-1.8,30.45,SE,144,0.0,0.0,77,0.00,,,0.00,VWS V14.00,2013-02-01 10:36:00,
2013-02-01 04:41:00,3.7,-1.9,30.45,SE,125,0.0,0.0,77,0.00,,,0.00,VWS V14.00,2013-02-01 10:41:00,
2013-02-01 04:46:00,3.6,-2.0,30.46,SE,129,0.0,0.0,77,0.00,,,0.00,VWS V14.00,2013-02-01 10:46:00,
2013-02-01 04:51:00,3.5,-1.8,30.46,SE,129,0.0,0.0,78,0.00,,,0.00,VWS V14.00,2013-02-01 10:51:00,
2013-02-01 04:56:00,3.4,-1.9,30.46,SE,128,0.0,0.0,78,0.00,,,0.00,VWS V14.00,2013-02-01 10:56:00,
2013-02-01 05:01:00,3.3,-2.0,30.46,SE,130,0.0,0.0,78,0.00,,,0.00,VWS V14.00,2013-02-01 11:01:00,
2013-02-01 05:06:00,3.1,-2.2,30.46,SE,128,0.0,0.0,78,0.00,,,0.00,VWS V14.00,2013-02-01 11:06:00,
2013-02-01 05:11:00,2.9,-2.4,30.45,SE,128,0.0,0.0,78,0.00,,,0.00,VWS V14.00,2013-02-01 11:11:00,
2013-02-01 05:16:00,2.8,-2.8,30.45,SE,128,0.0,0.0,77,0.00,,,0.00,VWS V14.00,2013-02-01 11:16:00,
2013-02-01 05:21:00,2.7,-2.9,30.45,ESE,122,0.0,0.0,77,0.00,,,0.00,VWS V14.00,2013-02-01 11:21:00,
2013-02-01 05:26:00,2.6,-3.0,30.45,SE,129,0.0,0.0,77,0.00,,,0.00,VWS V14.00,2013-02-01 11:26:00,
2013-02-01 05:31:00,2.6,-3.0,30.44,SE,128,0.0,0.0,77,0.00,,,0.00,VWS V14.00,2013-02-01 11:31:00,
2013-02-01 05:36:00,2.5,-3.0,30.44,SE,134,0.0,0.0,77,0.00,,,0.00,VWS V14.00,2013-02-01 11:36:00,
2013-02-01 05:41:00,2.4,-3.2,30.44,SSE,149,0.0,0.0,77,0.00,,,0.00,VWS V14.00,2013-02-01 11:41:00,
2013-02-01 05:46:00,2.4,-3.2,30.45,SSE,157,0.0,0.0,77,0.00,,,0.00,VWS V14.00,2013-02-01 11:46:00,
2013-02-01 05:51:00,2.4,-3.4,30.44,SSE,158,0.0,0.0,76,0.00,,,0.00,VWS V14.00,2013-02-01 11:51:00,
2013-02-01 05:56:00,2.3,-3.2,30.45,SSE,153,0.0,0.0,77,0.00,,,0.00,VWS V14.00,2013-02-01 11:56:00,
2013-02-01 06:01:00,2.3,-3.2,30.44,SSE,150,0.0,0.0,77,0.00,,,0.00,VWS V14.00,2013-02-01 12:01:00,
2013-02-01 06:06:00,2.2,-3.6,30.45,SSE,152,0.0,0.0,76,0.00,,,0.00,VWS V14.00,2013-02-01 12:06:00,
2013-02-01 06:11:00,2.2,-3.6,30.44,SE,130,0.0,0.0,76,0.00,,,0.00,VWS V14.00,2013-02-01 12:11:00,
2013-02-01 06:16:00,2.2,-3.6,30.44,SE,136,0.0,0.0,76,0.00,,,0.00,VWS V14.00,2013-02-01 12:16:00,
2013-02-01 06:21:00,2.2,-3.6,30.44,SE,137,0.0,0.0,76,0.00,,,0.00,VWS V14.00,2013-02-01 12:21:00,
2013-02-01 06:26:00,2.2,-3.6,30.44,SSE,153,0.0,0.0,76,0.00,,,0.00,VWS V14.00,2013-02-01 12:26:00,
2013-02-01 06:31:00,2.2,-3.6,30.44,SE,136,0.0,0.0,76,0.00,,,0.00,VWS V14.00,2013-02-01 12:31:00,
2013-02-01 06:36:00,2.2,-3.6,30.43,SE,134,0.0,0.0,76,0.00,,,0.00,VWS V14.00,2013-02-01 12:36:00,
2013-02-01 06:41:00,2.2,-3.6,30.43,SE,138,0.0,0.0,76,0.00,,,0.00,VWS V14.00,2013-02-01 12:41:00,
2013-02-01 06:46:00,2.2,-3.6,30.43,ESE,121,0.0,0.0,76,0.00,,,0.00,VWS V14.00,2013-02-01 12:46:00,
2013-02-01 06:51:00,2.3,-3.5,30.43,SE,126,0.0,0.0,76,0.00,,,0.00,VWS V14.00,2013-02-01 12:51:00,
2013-02-01 06:56:00,2.4,-3.4,30.43,SE,134,0.0,1.0,76,0.00,,,0.00,VWS V14.00,2013-02-01 12:56:00,
2013-02-01 07:01:00,2.4,-3.7,30.44,SSE,161,0.0,1.0,75,0.00,,,0.00,VWS V14.00,2013-02-01 13:01:00,
2013-02-01 07:06:00,2.5,-3.6,30.43,SSE,152,1.0,1.0,75,0.00,,,0.00,VWS V14.00,2013-02-01 13:06:00,
2013-02-01 07:11:00,2.6,-3.5,30.43,SE,140,0.0,1.0,75,0.00,,,0.00,VWS V14.00,2013-02-01 13:11:00,
2013-02-01 07:16:00,2.6,-3.5,30.43,SE,145,0.0,1.0,75,0.00,,,0.00,VWS V14.00,2013-02-01 13:16:00,
2013-02-01 07:21:00,2.6,-3.2,30.42,SE,142,0.0,1.0,76,0.00,,,0.00,VWS V14.00,2013-02-01 13:21:00,
2013-02-01 07:26:00,2.6,-3.2,30.42,South,169,0.0,1.0,76,0.00,,,0.00,VWS V14.00,2013-02-01 13:26:00,
2013-02-01 07:31:00,2.6,-3.2,30.42,SSE,160,0.0,1.0,76,0.00,,,0.00,VWS V14.00,2013-02-01 13:31:00,
2013-02-01 07:36:00,2.6,-3.2,30.42,SE,131,1.0,1.0,76,0.00,,,0.00,VWS V14.00,2013-02-01 13:36:00,
2013-02-01 07:41:00,2.6,-3.0,30.42,South,169,0.0,1.0,77,0.00,,,0.00,VWS V14.00,2013-02-01 13:41:00,
2013-02-01 07:46:00,2.7,-2.9,30.41,SSE,150,1.0,1.0,77,0.00,,,0.00,VWS V14.00,2013-02-01 13:46:00,
2013-02-01 07:51:00,2.8,-2.8,30.41,SE,142,0.0,1.0,77,0.00,,,0.00,VWS V14.00,2013-02-01 13:51:00,
2013-02-01 07:56:00,2.8,-2.8,30.41,SE,132,0.0,1.0,77,0.00,,,0.00,VWS V14.00,2013-02-01 13:56:00,
2013-02-01 08:01:00,3.0,-2.6,30.41,SSE,152,0.0,1.0,77,0.00,,,0.00,VWS V14.00,2013-02-01 14:01:00,
2013-02-01 08:06:00,3.3,-2.3,30.40,SE,142,1.0,1.0,77,0.00,,,0.00,VWS V14.00,2013-02-01 14:06:00,
2013-02-01 08:11:00,3.6,-2.0,30.40,SSE,153,0.0,2.0,77,0.00,,,0.00,VWS V14.00,2013-02-01 14:11:00,
2013-02-01 08:16:00,3.9,-1.7,30.39,SSE,150,1.0,3.0,77,0.00,,,0.00,VWS V14.00,2013-02-01 14:16:00,
2013-02-01 08:21:00,4.3,-1.3,30.39,SSE,149,1.0,3.0,77,0.00,,,0.00,VWS V14.00,2013-02-01 14:21:00,
2013-02-01 08:26:00,4.7,-1.2,30.38,SE,141,1.0,4.0,76,0.00,,,0.00,VWS V14.00,2013-02-01 14:26:00,
2013-02-01 08:31:00,5.2,-0.7,30.38,SSW,194,0.0,5.0,76,0.00,,,0.00,VWS V14.00,2013-02-01 14:31:00,
2013-02-01 08:36:00,5.6,-0.6,30.39,ESE,123,0.0,3.0,75,0.00,,,0.00,VWS V14.00,2013-02-01 14:36:00,
2013-02-01 08:41:00,6.0,-0.2,30.39,SSE,155,2.0,6.0,75,0.00,,,0.00,VWS V14.00,2013-02-01 14:41:00,
2013-02-01 08:45:00,6.3,0.1,30.39,SSE,168,0.0,6.0,75,0.00,,,0.00,VWS V14.00,2013-02-01 14:45:00,
2013-02-01 08:50:00,6.7,0.5,30.39,SSE,147,2.0,6.0,75,0.00,,,0.00,VWS V14.00,2013-02-01 14:50:00,
2013-02-01 08:55:00,7.3,1.0,30.39,South,169,0.0,6.0,75,0.00,,,0.00,VWS V14.00,2013-02-01 14:55:00,
2013-02-01 09:00:00,7.7,1.2,30.38,SSE,155,5.0,6.0,74,0.00,,,0.00,VWS V14.00,2013-02-01 15:00:00,
2013-02-01 09:05:00,8.1,1.5,30.38,ESE,111,0.0,1.0,74,0.00,,,0.00,VWS V14.00,2013-02-01 15:05:00,
2013-02-01 09:10:00,8.4,1.5,30.37,SE,146,2.0,10.0,73,0.00,,,0.00,VWS V14.00,2013-02-01 15:10:00,
2013-02-01 09:15:00,8.6,1.7,30.37,SSE,161,3.0,10.0,73,0.00,,,0.00,VWS V14.00,2013-02-01 15:15:00,
2013-02-01 09:20:00,8.9,2.0,30.37,South,173,0.0,12.0,73,0.00,,,0.00,VWS V14.00,2013-02-01 15:20:00,
2013-02-01 09:25:00,9.3,2.4,30.37,SSE,157,2.0,12.0,73,0.00,,,0.00,VWS V14.00,2013-02-01 15:25:00,
2013-02-01 09:30:00,9.6,2.7,30.37,SE,139,4.0,12.0,73,0.00,,,0.00,VWS V14.00,2013-02-01 15:30:00,
2013-02-01 09:35:00,9.9,3.0,30.37,South,171,0.0,5.0,73,0.00,,,0.00,VWS V14.00,2013-02-01 15:35:00,
2013-02-01 09:40:00,10.8,3.9,30.37,SSE,167,1.0,12.0,73,0.00,,,0.00,VWS V14.00,2013-02-01 15:40:00,
2013-02-01 09:45:00,11.3,4.1,30.37,SSE,150,2.0,12.0,72,0.00,,,0.00,VWS V14.00,2013-02-01 15:45:00,
2013-02-01 09:50:00,11.5,4.2,30.36,SSE,153,2.0,12.0,72,0.00,,,0.00,VWS V14.00,2013-02-01 15:50:00,
2013-02-01 09:55:00,11.6,4.6,30.36,South,178,1.0,15.0,73,0.00,,,0.00,VWS V14.00,2013-02-01 15:55:00,
2013-02-01 10:00:00,11.9,4.9,30.36,South,187,2.0,15.0,73,0.00,,,0.00,VWS V14.00,2013-02-01 16:00:00,
2013-02-01 10:05:00,12.2,5.5,30.36,SSE,161,3.0,4.0,74,0.00,,,0.00,VWS V14.00,2013-02-01 16:05:00,
2013-02-01 10:10:00,13.0,6.6,30.36,SE,146,1.0,5.0,75,0.00,,,0.00,VWS V14.00,2013-02-01 16:10:00,
2013-02-01 10:15:00,13.8,7.4,30.36,SE,129,1.0,9.0,75,0.00,,,0.00,VWS V14.00,2013-02-01 16:15:00,
2013-02-01 10:20:00,14.8,8.3,30.36,South,180,1.0,14.0,75,0.00,,,0.00,VWS V14.00,2013-02-01 16:20:00,
2013-02-01 10:25:00,15.4,8.6,30.36,SSW,198,2.0,15.0,74,0.00,,,0.00,VWS V14.00,2013-02-01 16:25:00,
2013-02-01 10:30:00,15.8,8.7,30.36,SE,146,2.0,15.0,73,0.00,,,0.00,VWS V14.00,2013-02-01 16:30:00,
2013-02-01 10:35:00,16.1,9.3,30.35,SSE,147,3.0,6.0,74,0.00,,,0.00,VWS V14.00,2013-02-01 16:35:00,
2013-02-01 10:40:00,16.4,9.6,30.35,South,178,0.0,6.0,74,0.00,,,0.00,VWS V14.00,2013-02-01 16:40:00,
2013-02-01 10:45:00,17.0,10.2,30.35,South,171,0.0,6.0,74,0.00,,,0.00,VWS V14.00,2013-02-01 16:45:00,
2013-02-01 10:50:00,17.4,10.6,30.35,South,169,1.0,7.0,74,0.00,,,0.00,VWS V14.00,2013-02-01 16:50:00,
2013-02-01 10:55:00,17.8,10.9,30.34,South,169,5.0,7.0,74,0.00,,,0.00,VWS V14.00,2013-02-01 16:55:00,
2013-02-01 11:00:00,18.2,11.6,30.34,SSW,211,1.0,7.0,75,0.00,,,0.00,VWS V14.00,2013-02-01 17:00:00,
2013-02-01 11:05:00,18.9,12.3,30.34,SSE,153,2.0,9.0,75,0.00,,,0.00,VWS V14.00,2013-02-01 17:05:00,
2013-02-01 11:10:00,19.5,12.9,30.33,South,178,4.0,10.0,75,0.00,,,0.00,VWS V14.00,2013-02-01 17:10:00,
2013-02-01 11:15:00,19.8,13.2,30.33,South,186,1.0,10.0,75,0.00,,,0.00,VWS V14.00,2013-02-01 17:15:00,
2013-02-01 11:20:00,20.4,13.8,30.33,SSW,206,4.0,10.0,75,0.00,,,0.00,VWS V14.00,2013-02-01 17:20:00,
2013-02-01 11:25:00,20.5,13.5,30.33,South,169,5.0,12.0,74,0.00,,,0.00,VWS V14.00,2013-02-01 17:25:00,
2013-02-01 11:30:00,20.7,13.7,30.32,South,174,5.0,13.0,74,0.00,,,0.00,VWS V14.00,2013-02-01 17:30:00,
2013-02-01 11:35:00,21.1,14.4,30.32,SSW,211,2.0,3.0,75,0.00,,,0.00,VWS V14.00,2013-02-01 17:35:00,
2013-02-01 11:40:00,21.6,14.9,30.31,SSE,163,1.0,11.0,75,0.00,,,0.00,VWS V14.00,2013-02-01 17:40:00,
2013-02-01 11:45:00,22.1,15.4,30.31,SSW,200,0.0,12.0,75,0.00,,,0.00,VWS V14.00,2013-02-01 17:45:00,
2013-02-01 11:50:00,22.5,15.8,30.31,South,175,1.0,17.0,75,0.00,,,0.00,VWS V14.00,2013-02-01 17:50:00,
2013-02-01 11:55:00,22.9,16.2,30.31,South,190,4.0,17.0,75,0.00,,,0.00,VWS V14.00,2013-02-01 17:55:00,
2013-02-01 12:00:00,23.4,16.7,30.30,SSW,194,3.0,17.0,75,0.00,,,0.00,VWS V14.00,2013-02-01 18:00:00,
2013-02-01 12:05:00,23.6,16.9,30.30,SW,223,3.0,11.0,75,0.00,,,0.00,VWS V14.00,2013-02-01 18:05:00,
2013-02-01 12:10:00,24.0,17.2,30.30,South,178,9.0,11.0,75,0.00,,,0.00,VWS V14.00,2013-02-01 18:10:00,
2013-02-01 12:15:00,24.5,17.7,30.30,SSE,167,3.0,11.0,75,0.00,,,0.00,VWS V14.00,2013-02-01 18:15:00,
2013-02-01 12:20:00,24.7,17.6,30.29,South,175,9.0,13.0,74,0.00,,,0.00,VWS V14.00,2013-02-01 18:20:00,
2013-02-01 12:25:00,24.8,17.7,30.29,SW,226,1.0,14.0,74,0.00,,,0.00,VWS V14.00,2013-02-01 18:25:00,
2013-02-01 12:30:00,25.1,18.3,30.28,SE,144,4.0,14.0,75,0.00,,,0.00,VWS V14.00,2013-02-01 18:30:00,
2013-02-01 12:35:00,25.4,18.3,30.28,SE,127,2.0,8.0,74,0.00,,,0.00,VWS V14.00,2013-02-01 18:35:00,
2013-02-01 12:40:00,25.7,18.9,30.27,WSW,248,4.0,11.0,75,0.00,,,0.00,VWS V14.00,2013-02-01 18:40:00,
2013-02-01 12:45:00,26.1,19.0,30.27,South,171,4.0,11.0,74,0.00,,,0.00,VWS V14.00,2013-02-01 18:45:00,
2013-02-01 12:50:00,26.2,19.1,30.27,SW,221,7.0,12.0,74,0.00,,,0.00,VWS V14.00,2013-02-01 18:50:00,
2013-02-01 12:55:00,26.3,19.1,30.27,SSW,209,1.0,12.0,74,0.00,,,0.00,VWS V14.00,2013-02-01 18:55:00,
2013-02-01 13:00:00,26.7,19.5,30.27,SW,222,6.0,13.0,74,0.00,,,0.00,VWS V14.00,2013-02-01 19:00:00,
2013-02-01 13:05:00,27.1,19.9,30.27,SW,215,0.0,2.0,74,0.00,,,0.00,VWS V14.00,2013-02-01 19:05:00,
2013-02-01 13:10:00,27.5,20.0,30.27,South,181,3.0,13.0,73,0.00,,,0.00,VWS V14.00,2013-02-01 19:10:00,
2013-02-01 13:15:00,27.4,19.9,30.26,SW,217,16.0,21.0,73,0.00,,,0.00,VWS V14.00,2013-02-01 19:15:00,
2013-02-01 13:20:00,27.0,19.5,30.26,South,175,10.0,21.0,73,0.00,,,0.00,VWS V14.00,2013-02-01 19:20:00,
2013-02-01 13:25:00,26.7,19.2,30.26,WSW,245,4.0,21.0,73,0.00,,,0.00,VWS V14.00,2013-02-01 19:25:00,
2013-02-01 13:30:00,26.9,19.7,30.26,South,185,3.0,21.0,74,0.00,,,0.00,VWS V14.00,2013-02-01 19:30:00,
2013-02-01 13:35:00,27.0,19.8,30.25,South,173,7.0,8.0,74,0.00,,,0.00,VWS V14.00,2013-02-01 19:35:00,
2013-02-01 13:40:00,27.0,19.8,30.25,SW,224,7.0,19.0,74,0.00,,,0.00,VWS V14.00,2013-02-01 19:40:00,
2013-02-01 13:45:00,27.3,20.1,30.25,SW,223,10.0,19.0,74,0.00,,,0.00,VWS V14.00,2013-02-01 19:45:00,
2013-02-01 13:50:00,27.1,19.6,30.24,South,176,5.0,23.0,73,0.00,,,0.00,VWS V14.00,2013-02-01 19:50:00,
2013-02-01 13:55:00,27.1,19.9,30.24,SSW,213,4.0,23.0,74,0.00,,,0.00,VWS V14.00,2013-02-01 19:55:00,
2013-02-01 14:00:00,27.3,20.1,30.24,South,173,1.0,23.0,74,0.00,,,0.00,VWS V14.00,2013-02-01 20:00:00,
2013-02-01 14:05:00,27.9,20.7,30.24,SW,229,3.0,5.0,74,0.00,,,0.00,VWS V14.00,2013-02-01 20:05:00,
2013-02-01 14:10:00,28.4,20.9,30.23,SSW,205,5.0,18.0,73,0.00,,,0.00,VWS V14.00,2013-02-01 20:10:00,
2013-02-01 14:15:00,28.5,21.0,30.23,SSW,192,9.0,18.0,73,0.00,,,0.00,VWS V14.00,2013-02-01 20:15:00,
2013-02-01 14:20:00,28.2,20.4,30.22,South,183,2.0,19.0,72,0.00,,,0.00,VWS V14.00,2013-02-01 20:20:00,
2013-02-01 14:25:00,27.9,20.4,30.22,South,173,1.0,23.0,73,0.00,,,0.00,VWS V14.00,2013-02-01 20:25:00,
2013-02-01 14:30:00,27.9,20.7,30.22,South,185,3.0,23.0,74,0.00,,,0.00,VWS V14.00,2013-02-01 20:30:00,
2013-02-01 14:35:00,27.9,20.7,30.21,South,190,4.0,4.0,74,0.00,,,0.00,VWS V14.00,2013-02-01 20:35:00,
2013-02-01 14:40:00,27.9,20.7,30.21,SSW,203,17.0,24.0,74,0.00,,,0.00,VWS V14.00,2013-02-01 20:40:00,
2013-02-01 14:45:00,28.0,20.8,30.21,SW,215,5.0,24.0,74,0.00,,,0.00,VWS V14.00,2013-02-01 20:45:00,
2013-02-01 14:50:00,28.1,20.9,30.21,SSE,157,7.0,24.0,74,0.00,,,0.00,VWS V14.00,2013-02-01 20:50:00,
2013-02-01 14:55:00,28.3,21.1,30.21,SSW,192,1.0,24.0,74,0.00,,,0.00,VWS V14.00,2013-02-01 20:55:00,
2013-02-01 14:59:00,28.5,21.0,30.20,SW,229,5.0,24.0,73,0.00,,,0.00,VWS V14.00,2013-02-01 20:59:00,
2013-02-01 15:04:00,28.7,21.1,30.20,South,178,0.0,1.0,73,0.00,,,0.00,VWS V14.00,2013-02-01 21:04:00,
2013-02-01 15:09:00,28.9,21.4,30.20,SW,215,1.0,23.0,73,0.00,,,0.00,VWS V14.00,2013-02-01 21:09:00,
2013-02-01 15:14:00,29.3,21.7,30.20,SSW,202,9.0,23.0,73,0.00,,,0.00,VWS V14.00,2013-02-01 21:14:00,
2013-02-01 15:19:00,29.5,21.6,30.20,South,190,14.0,23.0,72,0.00,,,0.00,VWS V14.00,2013-02-01 21:19:00,
2013-02-01 15:24:00,29.3,21.1,30.20,SSW,196,13.0,25.0,71,0.00,,,0.00,VWS V14.00,2013-02-01 21:24:00,
2013-02-01 15:29:00,29.1,21.2,30.20,SSW,213,7.0,25.0,72,0.00,,,0.00,VWS V14.00,2013-02-01 21:29:00,
2013-02-01 15:34:00,28.9,21.0,30.19,South,178,1.0,1.0,72,0.00,,,0.00,VWS V14.00,2013-02-01 21:34:00,
2013-02-01 15:39:00,29.0,21.1,30.19,SW,221,11.0,18.0,72,0.00,,,0.00,VWS V14.00,2013-02-01 21:39:00,
2013-02-01 15:44:00,29.0,21.1,30.19,SW,223,1.0,18.0,72,0.00,,,0.00,VWS V14.00,2013-02-01 21:44:00,
2013-02-01 15:49:00,29.1,21.2,30.18,SW,215,2.0,18.0,72,0.00,,,0.00,VWS V14.00,2013-02-01 21:49:00,
2013-02-01 15:54:00,29.2,21.3,30.18,SW,221,10.0,19.0,72,0.00,,,0.00,VWS V14.00,2013-02-01 21:54:00,
2013-02-01 15:59:00,29.1,21.2,30.18,South,188,9.0,20.0,72,0.00,,,0.00,VWS V14.00,2013-02-01 21:59:00,
2013-02-01 16:04:00,28.8,20.3,30.18,South,186,6.0,20.0,70,0.00,,,0.00,VWS V14.00,2013-02-01 22:04:00,
2013-02-01 16:09:00,28.7,20.2,30.18,SSW,203,0.0,14.0,70,0.00,,,0.00,VWS V14.00,2013-02-01 22:09:00,
2013-02-01 16:14:00,28.6,20.4,30.17,South,182,2.0,14.0,71,0.00,,,0.00,VWS V14.00,2013-02-01 22:14:00,
2013-02-01 16:19:00,28.4,19.9,30.17,SSW,210,3.0,22.0,70,0.00,,,0.00,VWS V14.00,2013-02-01 22:19:00,
2013-02-01 16:24:00,28.3,20.1,30.17,SSW,206,2.0,22.0,71,0.00,,,0.00,VWS V14.00,2013-02-01 22:24:00,
2013-02-01 16:29:00,28.3,20.1,30.18,SW,225,2.0,22.0,71,0.00,,,0.00,VWS V14.00,2013-02-01 22:29:00,
2013-02-01 16:34:00,28.2,20.0,30.18,South,178,1.0,22.0,71,0.00,,,0.00,VWS V14.00,2013-02-01 22:34:00,
2013-02-01 16:39:00,28.1,19.6,30.17,SW,234,0.0,14.0,70,0.00,,,0.00,VWS V14.00,2013-02-01 22:39:00,
2013-02-01 16:44:00,28.0,19.5,30.17,SSW,202,16.0,19.0,70,0.00,,,0.00,VWS V14.00,2013-02-01 22:44:00,
2013-02-01 16:49:00,28.0,19.5,30.17,SSW,199,0.0,19.0,70,0.00,,,0.00,VWS V14.00,2013-02-01 22:49:00,
2013-02-01 16:54:00,27.9,19.4,30.17,South,175,2.0,19.0,70,0.00,,,0.00,VWS V14.00,2013-02-01 22:54:00,
2013-02-01 16:59:00,27.9,19.7,30.17,South,179,2.0,19.0,71,0.00,,,0.00,VWS V14.00,2013-02-01 22:59:00,
2013-02-01 17:04:00,27.9,20.1,30.17,SW,217,1.0,19.0,72,0.00,,,0.00,VWS V14.00,2013-02-01 23:04:00,
2013-02-01 17:09:00,27.9,19.7,30.17,SSW,195,1.0,19.0,71,0.00,,,0.00,VWS V14.00,2013-02-01 23:09:00,
2013-02-01 17:14:00,27.8,19.6,30.17,SSW,211,3.0,19.0,71,0.00,,,0.00,VWS V14.00,2013-02-01 23:14:00,
2013-02-01 17:19:00,27.7,19.2,30.17,South,191,13.0,19.0,70,0.00,,,0.00,VWS V14.00,2013-02-01 23:19:00,
2013-02-01 17:24:00,27.6,19.4,30.17,South,182,14.0,20.0,71,0.00,,,0.00,VWS V14.00,2013-02-01 23:24:00,
2013-02-01 17:29:00,27.5,19.4,30.17,SW,214,10.0,20.0,71,0.00,,,0.00,VWS V14.00,2013-02-01 23:29:00,
2013-02-01 17:34:00,27.4,19.6,30.17,SW,232,7.0,20.0,72,0.00,,,0.00,VWS V14.00,2013-02-01 23:34:00,
2013-02-01 17:39:00,27.4,19.6,30.16,SSE,165,6.0,16.0,72,0.00,,,0.00,VWS V14.00,2013-02-01 23:39:00,
2013-02-01 17:44:00,27.3,19.5,30.17,South,173,12.0,19.0,72,0.00,,,0.00,VWS V14.00,2013-02-01 23:44:00,
2013-02-01 17:49:00,27.3,19.5,30.17,WSW,240,1.0,19.0,72,0.00,,,0.00,VWS V14.00,2013-02-01 23:49:00,
2013-02-01 17:54:00,27.4,19.6,30.17,WSW,237,3.0,19.0,72,0.00,,,0.00,VWS V14.00,2013-02-01 23:54:00,
2013-02-01 17:59:00,27.3,19.5,30.16,SSW,211,1.0,23.0,72,0.00,,,0.00,VWS V14.00,2013-02-01 23:59:00,
2013-02-01 18:04:00,27.3,19.5,30.16,SW,232,13.0,23.0,72,0.00,,,0.00,VWS V14.00,2013-02-02 00:04:00,
2013-02-01 18:09:00,27.3,19.1,30.16,SSW,213,13.0,14.0,71,0.00,,,0.00,VWS V14.00,2013-02-02 00:09:00,
2013-02-01 18:14:00,27.2,19.1,30.16,SW,236,2.0,14.0,71,0.00,,,0.00,VWS V14.00,2013-02-02 00:14:00,
2013-02-01 18:19:00,27.1,19.0,30.16,WSW,245,0.0,19.0,71,0.00,,,0.00,VWS V14.00,2013-02-02 00:19:00,
2013-02-01 18:24:00,27.1,19.0,30.16,SW,214,4.0,19.0,71,0.00,,,0.00,VWS V14.00,2013-02-02 00:24:00,
2013-02-01 18:29:00,27.0,19.2,30.16,WSW,248,1.0,19.0,72,0.00,,,0.00,VWS V14.00,2013-02-02 00:29:00,
2013-02-01 18:34:00,26.9,19.1,30.16,South,183,2.0,19.0,72,0.00,,,0.00,VWS V14.00,2013-02-02 00:34:00,
2013-02-01 18:39:00,26.8,19.3,30.16,South,182,0.0,3.0,73,0.00,,,0.00,VWS V14.00,2013-02-02 00:39:00,
2013-02-01 18:44:00,26.7,19.2,30.16,SSE,167,1.0,3.0,73,0.00,,,0.00,VWS V14.00,2013-02-02 00:44:00,
2013-02-01 18:49:00,26.7,19.2,30.16,WSW,249,0.0,5.0,73,0.00,,,0.00,VWS V14.00,2013-02-02 00:49:00,
2013-02-01 18:54:00,26.6,19.1,30.16,SSW,199,0.0,5.0,73,0.00,,,0.00,VWS V14.00,2013-02-02 00:54:00,
2013-02-01 18:59:00,26.5,19.0,30.16,South,191,0.0,6.0,73,0.00,,,0.00,VWS V14.00,2013-02-02 00:59:00,
2013-02-01 19:04:00,26.4,18.9,30.16,SSW,204,2.0,6.0,73,0.00,,,0.00,VWS V14.00,2013-02-02 01:04:00,
2013-02-01 19:09:00,26.3,18.8,30.16,South,182,0.0,9.0,73,0.00,,,0.00,VWS V14.00,2013-02-02 01:09:00,
2013-02-01 19:14:00,26.2,18.7,30.16,SSW,203,1.0,9.0,73,0.00,,,0.00,VWS V14.00,2013-02-02 01:14:00,
2013-02-01 19:19:00,26.2,18.7,30.16,South,169,1.0,9.0,73,0.00,,,0.00,VWS V14.00,2013-02-02 01:19:00,
2013-02-01 19:24:00,26.2,18.7,30.16,SSE,157,2.0,9.0,73,0.00,,,0.00,VWS V14.00,2013-02-02 01:24:00,
2013-02-01 19:29:00,26.2,18.7,30.16,SW,232,7.0,9.0,73,0.00,,,0.00,VWS V14.00,2013-02-02 01:29:00,
2013-02-01 19:34:00,26.2,19.1,30.16,SSW,192,2.0,9.0,74,0.00,,,0.00,VWS V14.00,2013-02-02 01:34:00,
2013-02-01 19:39:00,26.2,19.1,30.16,WSW,248,1.0,5.0,74,0.00,,,0.00,VWS V14.00,2013-02-02 01:39:00,
2013-02-01 19:44:00,26.2,19.1,30.16,South,184,0.0,6.0,74,0.00,,,0.00,VWS V14.00,2013-02-02 01:44:00,
2013-02-01 19:49:00,26.2,19.1,30.16,SW,224,3.0,6.0,74,0.00,,,0.00,VWS V14.00,2013-02-02 01:49:00,
2013-02-01 19:54:00,26.2,19.1,30.16,South,185,0.0,6.0,74,0.00,,,0.00,VWS V14.00,2013-02-02 01:54:00,
2013-02-01 19:59:00,26.2,19.1,30.16,SSW,197,0.0,6.0,74,0.00,,,0.00,VWS V14.00,2013-02-02 01:59:00,
2013-02-01 20:04:00,26.3,19.1,30.16,SSW,211,2.0,6.0,74,0.00,,,0.00,VWS V14.00,2013-02-02 02:04:00,
2013-02-01 20:09:00,26.3,19.1,30.16,SSE,155,1.0,6.0,74,0.00,,,0.00,VWS V14.00,2013-02-02 02:09:00,
2013-02-01 20:14:00,26.3,19.1,30.17,SSW,194,6.0,9.0,74,0.00,,,0.00,VWS V14.00,2013-02-02 02:14:00,
2013-02-01 20:19:00,26.3,19.1,30.16,SSW,198,4.0,9.0,74,0.00,,,0.00,VWS V14.00,2013-02-02 02:19:00,
2013-02-01 20:24:00,26.3,19.1,30.16,SW,234,0.0,9.0,74,0.00,,,0.00,VWS V14.00,2013-02-02 02:24:00,
2013-02-01 20:29:00,26.3,19.1,30.16,South,183,2.0,10.0,74,0.00,,,0.00,VWS V14.00,2013-02-02 02:29:00,
2013-02-01 20:34:00,26.3,19.5,30.16,SW,231,0.0,10.0,75,0.00,,,0.00,VWS V14.00,2013-02-02 02:34:00,
2013-02-01 20:39:00,26.3,19.1,30.16,SW,236,2.0,6.0,74,0.00,,,0.00,VWS V14.00,2013-02-02 02:39:00,
2013-02-01 20:43:00,26.3,19.5,30.16,SSW,194,1.0,7.0,75,0.00,,,0.00,VWS V14.00,2013-02-02 02:43:00,
2013-02-01 20:48:00,26.3,19.5,30.16,SSW,196,4.0,7.0,75,0.00,,,0.00,VWS V14.00,2013-02-02 02:48:00,
2013-02-01 20:53:00,26.3,19.5,30.16,SSW,194,1.0,7.0,75,0.00,,,0.00,VWS V14.00,2013-02-02 02:53:00,
2013-02-01 20:58:00,26.4,19.6,30.16,SW,230,0.0,7.0,75,0.00,,,0.00,VWS V14.00,2013-02-02 02:58:00,
2013-02-01 21:03:00,26.4,19.6,30.16,SW,218,0.0,7.0,75,0.00,,,0.00,VWS V14.00,2013-02-02 03:03:00,
2013-02-01 21:08:00,26.4,19.6,30.16,South,190,1.0,5.0,75,0.00,,,0.00,VWS V14.00,2013-02-02 03:08:00,
2013-02-01 21:13:00,26.4,19.9,30.16,SW,232,0.0,5.0,76,0.00,,,0.00,VWS V14.00,2013-02-02 03:13:00,
2013-02-01 21:18:00,26.4,19.9,30.17,WSW,240,1.0,5.0,76,0.00,,,0.00,VWS V14.00,2013-02-02 03:18:00,
2013-02-01 21:23:00,26.4,19.9,30.17,SSW,197,0.0,5.0,76,0.00,,,0.00,VWS V14.00,2013-02-02 03:23:00,
2013-02-01 21:28:00,26.4,19.9,30.16,SSW,198,1.0,5.0,76,0.00,,,0.00,VWS V14.00,2013-02-02 03:28:00,
2013-02-01 21:33:00,26.5,20.0,30.17,SSW,213,2.0,5.0,76,0.00,,,0.00,VWS V14.00,2013-02-02 03:33:00,
2013-02-01 21:38:00,26.6,20.1,30.17,SSW,199,1.0,4.0,76,0.00,,,0.00,VWS V14.00,2013-02-02 03:38:00,
2013-02-01 21:43:00,26.6,20.1,30.17,WSW,257,0.0,4.0,76,0.00,,,0.00,VWS V14.00,2013-02-02 03:43:00,
2013-02-01 21:48:00,26.6,20.1,30.17,SW,232,2.0,5.0,76,0.00,,,0.00,VWS V14.00,2013-02-02 03:48:00,
2013-02-01 21:53:00,26.7,20.5,30.17,WSW,237,0.0,5.0,77,0.00,,,0.00,VWS V14.00,2013-02-02 03:53:00,
2013-02-01 21:58:00,26.7,20.5,30.17,SW,225,0.0,5.0,77,0.00,,,0.00,VWS V14.00,2013-02-02 03:58:00,
2013-02-01 22:03:00,26.7,20.5,30.17,SW,232,0.0,5.0,77,0.00,,,0.00,VWS V14.00,2013-02-02 04:03:00,
2013-02-01 22:08:00,26.8,20.6,30.17,West,261,0.0,2.0,77,0.00,,,0.00,VWS V14.00,2013-02-02 04:08:00,
2013-02-01 22:13:00,26.8,20.9,30.17,SW,235,1.0,5.0,78,0.00,,,0.00,VWS V14.00,2013-02-02 04:13:00,
2013-02-01 22:18:00,27.0,21.4,30.17,WSW,254,0.0,5.0,79,0.00,,,0.00,VWS V14.00,2013-02-02 04:18:00,
2013-02-01 22:23:00,27.1,21.2,30.17,WSW,256,3.0,5.0,78,0.00,,,0.00,VWS V14.00,2013-02-02 04:23:00,
2013-02-01 22:28:00,27.1,21.2,30.17,SW,232,3.0,5.0,78,0.00,,,0.00,VWS V14.00,2013-02-02 04:28:00,
2013-02-01 22:33:00,27.1,21.5,30.17,SW,234,2.0,5.0,79,0.00,,,0.00,VWS V14.00,2013-02-02 04:33:00,
2013-02-01 22:38:00,27.1,21.5,30.18,West,265,4.0,5.0,79,0.00,,,0.00,VWS V14.00,2013-02-02 04:38:00,
2013-02-01 22:43:00,27.1,21.5,30.17,WSW,254,0.0,5.0,79,0.00,,,0.00,VWS V14.00,2013-02-02 04:43:00,
2013-02-01 22:48:00,27.0,21.4,30.17,WSW,242,0.0,5.0,79,0.00,,,0.00,VWS V14.00,2013-02-02 04:48:00,
2013-02-01 22:53:00,27.0,21.4,30.17,WSW,245,3.0,5.0,79,0.00,,,0.00,VWS V14.00,2013-02-02 04:53:00,
2013-02-01 22:58:00,27.0,21.7,30.17,West,259,0.0,5.0,80,0.00,,,0.00,VWS V14.00,2013-02-02 04:58:00,
2013-02-01 23:00:00,27.0,21.7,30.17,WSW,249,0.0,5.0,80,0.00,,,0.00,VWS V14.00,2013-02-02 05:00:00,
2013-02-01 23:05:00,27.0,21.7,30.18,WSW,245,1.0,2.0,80,0.00,,,0.00,VWS V14.00,2013-02-02 05:05:00,
2013-02-01 23:10:00,27.0,22.0,30.17,West,262,2.0,4.0,81,0.00,,,0.00,VWS V14.00,2013-02-02 05:10:00,
2013-02-01 23:15:00,27.1,22.1,30.17,WSW,255,0.0,4.0,81,0.00,,,0.00,VWS V14.00,2013-02-02 05:15:00,
2013-02-01 23:20:00,27.1,22.1,30.17,WSW,240,2.0,4.0,81,0.00,,,0.00,VWS V14.00,2013-02-02 05:20:00,
2013-02-01 23:25:00,27.1,22.1,30.18,West,267,0.0,4.0,81,0.00,,,0.00,VWS V14.00,2013-02-02 05:25:00,
2013-02-01 23:30:00,27.1,22.1,30.17,WSW,256,0.0,4.0,81,0.00,,,0.00,VWS V14.00,2013-02-02 05:30:00,
2013-02-01 23:35:00,27.2,22.4,30.17,West,259,0.0,0.0,82,0.00,,,0.00,VWS V14.00,2013-02-02 05:35:00,
2013-02-01 23:40:00,27.1,22.4,30.18,West,272,0.0,1.0,82,0.00,,,0.00,VWS V14.00,2013-02-02 05:40:00,
2013-02-01 23:45:00,27.1,22.4,30.18,West,265,0.0,1.0,82,0.00,,,0.00,VWS V14.00,2013-02-02 05:45:00,
2013-02-01 23:50:00,27.4,22.9,30.18,West,267,0.0,2.0,83,0.00,,,0.00,VWS V14.00,2013-02-02 05:50:00,
2013-02-01 23:55:00,27.5,23.0,30.19,West,263,0.0,2.0,83,0.00,,,0.00,VWS V14.00,2013-02-02 05:55:00,